Location: Colle Santa Colomba
(42.0333°N, 12.5667°E)
Time: 03:46:45
(UTC+00:00)

H-2A R/B - Pass Details

Date: 25 October 2021
Orbit: 577 x 654 km, 98.5° (Epoch: 28 November)

Event Time Altitude Azimuth Distance (km) Brightness Sun altitude
Exits shadow 19:07:50 24° 287° (WNW) 1,235 4.1 -33.0°
Drops below altitude 10° 19:11:00 10° 239° (WSW) 1,937 5.0 -33.5°
Sets 19:13:29 0° 225° (SW) 2,849 5.8 -34.0°
